STARLINK-31697, 59583

Orbit data source: Space-Track

STARLINK-31697, 59583 is a payload satellite owned by SpaceX/Seattle (US) in LEO that was launched on Tue, 23 Apr 2024 UTC via an FALCON 9 launch vehicle from the Air Force Eastern Test Range (AFETR). Payload-class satellites include a variety of spacecraft equipped with specific instruments for various scientific and technological missions. These include communications satellites like Starlink; space stations such as the ISS; scientific satellites like the Hubble; Earth observation satellites from companies like Planet Labs, Umbra, and HawkEye 360; GPS; miniature CubeSats for education and research; and military/defense satellites.

Loading next visibility...
Identifier
59583, 2024-076V
Orbit
LEO
Country
Flag of USUS
Related business
Manufacturer
SpaceX/Seattle
Mission
Operational Commercial Communications
Bus & Motor
STARLINK V2M, Unknown motor
Mass
730 kg wet, ~700 kg dry
Launch date (UTC)
2024-04-23 (1 year ago)
Launch vehicle
FALCON 9
Launch site
Air Force Eastern Test Range (AFETR)
Object type
Payload
Rocket body
Debris
Shape & HBR
Box + 2 Pan, 17.7 m
Radar Cross Section
33.884 m², Large (>1 m²)

Expand to show TLE details & history
Last TLE update: 13 hours ago

TLE from 13 hours ago
0 STARLINK-31697
1 59583U 24076V   25288.92495578  .00014456  00000-0  53335-3 0  9995
2 59583  43.0002 106.4763 0001668 278.7128  81.3535 15.27609026 84278
Epoch: 2025-10-15T22:11Z
TLE epoch observation values (Epoch: 2025-10-15T22:11:56.179Z)
Latitude
0.00001°
Longitude
108.80018°
Altitude
482.566 km
Speed
7.626 km/s
True Right ascension
07h 05m 54s
True Declination
0° 00' 00"
Sunlit
Object was in daylight at epoch
Visualization orbit readout
Latitude
Unknown
Longitude
Unknown
Altitude
Unknown
Speed
Unknown
Apparent Right ascension
Unknown
Apparent Declination
Unknown
Sunlit
N/A
Visualization observer readout
Local Sidereal Time
06:02:24
Azimuth
Unknown
Elevation
Unknown
Doppler factor
Unknown
Orbital elements
Apogee altitude
486.052 km
Perigee altitude
483.763 km
Semi-major axis
6,863.044 km
Eccentricity
0.00017
Inclination
43.0002°
RAAN
106.4763°
Arg. of periapsis
278.7128°
True anomaly
81.3724°
Mean anomaly
81.3535°
Eccentric anomaly
81.36295°
Mean motion
3.8174 °/min
Orbital period
94.3 mins
BSTAR
0.00053335
Loading maneuver chart data...
Computing Atmospheric mass density...
Loading historical data...
Loading historical data...
Loading historical data...
Loading historical data...
Loading historical data...
Loading historical data...
Loading historical data...

Documentation

Showing up to 5 results
|